Location: Strawberry
(45.6646°N, 111.9596°W)
Time: 01:39:34
(UTC+00:00)

Vanguard 1 Rocket - Pass Details

Date: 04 October 2022
Orbit: 650 x 4225 km, 34.3° (Epoch: 05 December)

Event Time Altitude Azimuth Distance (km) Brightness Sun altitude
Rises 06:23:20 0° 267° (W) 6,949 12.1 -47.1°
Reaches altitude 10° 06:29:04 10° 262° (W) 5,328 11.3 -47.4°
Enters shadow 06:33:39 20° 253° (WSW) 3,995 10.5 -47.7°
